Change the Weather History Date:

Wednesday, July 17, 2013

  Actual Average Record
Temperature  
Mean Temperature 82 °F -  
Max Temperature 91 °F 91 °F 101 °F (1983)
Min Temperature 74 °F 72 °F 60 °F (2004)
Cooling Degree Days 18    
Growing Degree Days 32 (Base 50)    
Moisture  
Dew Point 74 °F    
Average Humidity 78    
Maximum Humidity 100    
Minimum Humidity 50    
Precipitation  
Precipitation 0.10 in - - ()
Sea Level Pressure  
Sea Level Pressure 30.18 in    
Wind  
Wind Speed 4 mph (East)    
Max Wind Speed 10 mph    
Max Gust Speed -    
Visibility 10 miles    
Events Rain , Thunderstorm    
Averages and records for this station are not official NWS values.
T = Trace of Precipitation, MM = Missing Value Source: NWS Daily Summary

Daily Weather History Graph

Daily Weather History Graph

Search for Another Location

Airport or City:

Trip Planner

Search our weather history database for the weather conditions in past years. The results will help you decide how hot, cold, wet, or windy it might be!

Date:

Astronomy

Jul. 17, 2013 Rise Set
Actual Time 6:14 AM EDT 8:29 PM EDT
Civil Twilight 5:45 AM EDT 8:58 PM EDT
Nautical Twilight 5:10 AM EDT 9:33 PM EDT
Astronomical Twilight 4:31 AM EDT 10:12 PM EDT
Moon 3:19 PM EDT (7/17) 1:15 AM EDT (7/17)
Length of Visible Light 15h 12m
Length of Day
14h 15m
Waxing Gibbous, 67% of the Moon is Illuminated
Jul 17
Waxing Gibbous
Jul 22
Full
Jul 29
Last Quarter
Aug 6
New
Aug 14
First Quarter

Hourly Weather History & Observations

Time (EDT) Temp. Heat Index Dew Point Humidity Pressure Visibility Wind Dir Wind Speed Gust Speed Precip Events Conditions
12:58 AM 78.3 °F - 74.8 °F 89% 30.20 in 10.0 mi Calm Calm - N/A   Clear
1:58 AM 79.2 °F - 74.3 °F 85% 30.19 in 10.0 mi NNW 2.3 mph - N/A   Clear
2:58 AM 77.7 °F - 74.3 °F 89% 30.19 in 10.0 mi WSW 2.3 mph - N/A   Clear
3:58 AM 78.1 °F - 73.8 °F 86% 30.18 in 10.0 mi WSW 4.6 mph - N/A   Clear
4:58 AM 77.2 °F - 74.1 °F 90% 30.18 in 10.0 mi WSW 3.5 mph - N/A Thunderstorm Clear
5:34 AM 75.2 °F - 75.2 °F 100% 30.21 in 10.0 mi East 4.6 mph - N/A Thunderstorm Thunderstorm
5:35 AM 75.2 °F - 75.2 °F 100% 30.21 in 10.0 mi East 4.6 mph - N/A Rain , Thunderstorm Light Thunderstorms and Rain
5:50 AM 77.0 °F - 73.4 °F 89% 30.21 in 9.0 mi East 8.1 mph - N/A Rain , Thunderstorm Light Thunderstorms and Rain
5:55 AM 75.2 °F - 73.4 °F 94% 30.21 in 6.0 mi ESE 6.9 mph - N/A Rain , Thunderstorm Thunderstorms and Rain
5:58 AM 75.2 °F - 73.4 °F 94% 30.22 in 4.0 mi ESE 5.8 mph - 0.04 in Rain , Thunderstorm Heavy Thunderstorms and Rain
6:08 AM 75.2 °F - 71.6 °F 89% 30.20 in 6.0 mi Variable 2.3 mph - N/A Rain , Thunderstorm Light Thunderstorms and Rain
6:27 AM 75.2 °F - 73.4 °F 94% 30.18 in 10.0 mi West 3.5 mph - N/A Rain Light Rain
6:30 AM 75.2 °F - 73.4 °F 94% 30.18 in 10.0 mi West 4.6 mph - N/A   Scattered Clouds
6:47 AM 75.2 °F - 73.4 °F 94% 30.20 in 10.0 mi NW 3.5 mph - N/A   Partly Cloudy
6:58 AM 74.8 °F - 73.4 °F 95% 30.22 in 10.0 mi North 1.2 mph - 0.06 in   Clear
7:58 AM 78.6 °F - 75.4 °F 90% 30.22 in 10.0 mi North 1.2 mph - N/A   Scattered Clouds
8:58 AM 78.6 °F - 75.2 °F 89% 30.22 in 10.0 mi Calm Calm - N/A Thunderstorm Clear
9:58 AM 83.5 °F 93.3 °F 77.5 °F 82% 30.22 in 10.0 mi NE 4.6 mph - N/A   Clear
10:58 AM 87.4 °F 99.8 °F 77.5 °F 72% 30.22 in 10.0 mi ENE 5.8 mph - N/A   Clear
11:58 AM 88.7 °F 99.8 °F 76.1 °F 66% 30.20 in 10.0 mi East 6.9 mph - N/A   Clear
12:58 PM 89.6 °F 99.8 °F 75.0 °F 62% 30.20 in 10.0 mi ENE 5.8 mph - N/A   Partly Cloudy
1:58 PM 90.9 °F 100.0 °F 73.6 °F 57% 30.17 in 10.0 mi East 10.4 mph - N/A   Partly Cloudy
2:58 PM 91.6 °F 98.8 °F 71.4 °F 52% 30.17 in 10.0 mi ENE 8.1 mph - N/A   Partly Cloudy
3:58 PM 91.4 °F 98.4 °F 71.4 °F 52% 30.14 in 10.0 mi ENE 10.4 mph - N/A   Clear
4:58 PM 90.7 °F 96.9 °F 70.9 °F 52% 30.12 in 10.0 mi ENE 8.1 mph - N/A   Clear
5:24 PM 89.6 °F 94.7 °F 69.8 °F 52% 30.11 in 10.0 mi East 5.8 mph - N/A   Light Drizzle
5:35 PM 89.6 °F 94.7 °F 69.8 °F 52% 30.11 in 10.0 mi East 4.6 mph - N/A   Partly Cloudy
5:58 PM 90.0 °F 94.5 °F 69.1 °F 50% 30.12 in 10.0 mi East 4.6 mph - 0.00 in   Clear
6:58 PM 89.1 °F 94.6 °F 70.7 °F 54% 30.12 in 10.0 mi SSE 2.3 mph - N/A   Clear
7:58 PM 82.9 °F 91.2 °F 76.1 °F 80% 30.12 in 10.0 mi ENE 1.2 mph - N/A   Clear
8:58 PM 82.8 °F 91.3 °F 76.6 °F 82% 30.14 in 6.0 mi Calm Calm - N/A   Haze
9:58 PM 82.2 °F 89.1 °F 75.2 °F 79% 30.14 in 10.0 mi West 2.3 mph - N/A   Partly Cloudy
10:45 PM 82.4 °F 89.5 °F 75.2 °F 79% 30.15 in 10.0 mi WSW 4.6 mph - N/A   Light Drizzle
10:58 PM 82.0 °F 88.4 °F 74.7 °F 78% 30.15 in 10.0 mi SE 9.2 mph - 0.00 in   Light Drizzle
11:01 PM 82.4 °F 89.5 °F 75.2 °F 79% 30.15 in 10.0 mi SSE 8.1 mph - N/A   Mostly Cloudy
11:58 PM 81.5 °F 87.8 °F 75.2 °F 81% 30.17 in 10.0 mi ESE 4.6 mph - 0.00 in   Mostly Cloudy